Regional Weather Roundup
Issued by NWS Northern Indiana

Home | Current Version | Previous Version | Text Only | Print | Product List | Glossary Off
Versions: 1 2 3 4 5 6 7 8 9 10 11 12 13 14 15 16 17 18 19 20 21 22 23 24 25 26 27 28 29 30 31 32 33 34 35 36 37 38 39 40 41 42 43 44 45 46 47 48 49 50

000
ASUS43 KIWX 040700
RWRIWX

KIWX WEATHER ROUNDUP
NATIONAL WEATHER SERVICE NORTHERN INDIANA
200 AM EST SUN DEC 04 2016

NOTE: "FAIR" INDICATES FEW OR NO CLOUDS BELOW 12,000 FEET WITH NO
SIGNIFICANT WEATHER AND/OR OBSTRUCTIONS TO VISIBILITY.

* THESE STATIONS ARE NOT UNDER NWS QUALITY CONTROL. THEY ALSO MAY NOT
  REPORT WEATHER SUCH AS PRECIPITATION OR FOG.

INZ001>027-040800-
NORTHERN INDIANA

CITY           SKY/WX    TMP DP  RH WIND       PRES   REMARKS
GARY*          CLOUDY    32  28  85 CALM      30.27F
LAPORTE*       CLOUDY    33  33 100 CALM      30.27F
SOUTH BEND     CLOUDY    32  25  75 CALM      30.27S
GOSHEN         CLOUDY    32  25  75 CALM      30.26F
WARSAW*        CLOUDY    30  27  86 CALM      30.25F
ANGOLA*        CLOUDY    34  28  80 SW3       30.25F
FORT WAYNE     CLOUDY    32  28  85 SE3       30.27S
PERU/GRISSOM   CLOUDY    31  28  87 CALM      30.24F

$$
INZ028>050-040800-
CENTRAL INDIANA

CITY           SKY/WX    TMP DP  RH WIND       PRES   REMARKS
LAFAYETTE      CLOUDY    33  29  85 CALM      30.26F
KOKOMO*        CLOUDY    31  29  92 NE3       30.27F
MUNCIE*        CLOUDY    33  29  85 CALM      30.26S
INDIANAPOLIS   CLOUDY    34  28  79 NE3       30.25S

$$
MIZ043>046-050>051-056>058-064>065-071>073-077>080-040800-
SOUTHWEST LOWER MICHIGAN

CITY           SKY/WX    TMP DP  RH WIND       PRES   REMARKS
BATTLE CREEK   CLOUDY    34  28  79 S3        30.26S
BENTON HARBOR  CLOUDY    34  25  69 S6        30.25F WCI  29
COLDWATER*     CLOUDY    33  28  83 CALM      30.25F
HILLSDALE*     CLOUDY    32  27  80 CALM      30.23F
HOLLAND        CLOUDY    35  28  75 S7        30.25S WCI  29
GRAND RAPIDS   CLOUDY    34  28  79 S5        30.26S WCI  30
KALAMAZOO      CLOUDY    34  24  67 S5        30.25F WCI  30
STURGIS*       CLOUDY    32  28  84 CALM      30.24F
THREE RIVERS*  CLOUDY    33  29  86 SW3       30.26F

$$
OHZ001>008-015>018-024>025-040800-
NORTHWEST OHIO

CITY           SKY/WX    TMP DP  RH WIND       PRES   REMARKS
DEFIANCE       CLOUDY    35  27  72 CALM      30.28S
FINDLAY        CLOUDY    34  25  69 CALM      30.27F
TOLEDO EXPRESS CLOUDY    34  29  82 CALM      30.27F
TOLEDO METCALF CLOUDY    35  30  82 CALM      30.28F
LIMA           CLOUDY    33  28  81 E5        30.26F WCI  29

$$
AND FOR LAKE MICHIGAN COASTAL AND OPEN LAKE BUOY OBSERVATIONS

STATION/POSITION TEMP    WIND        PRES    VSBY  WAVE
                 AIR SEA DIR/SP/G                  HT/PER
                 (F)     (DEG/KT/KT) (MB)    (MI)  (FT/S)
CALUMET HARBOR    32     220/  3/  5 1024.5F
MICHIGAN CITY     33     160/  5/  7   N/A
BURNS HARBOR      33     200/  8/ 11 1025.4S
SAINT JOSEPH      34     160/  4/  9 1025.1F
SOUTH LAKE BUOY   35 48  280/  2/  8 1025.1          1

$$
&&



USA.gov is the U.S. government's official web portal to all federal, state and local government web resources and services.